ONEWEB-0719 (55179 NORAD) Tracking and Keplerian Element Data

This shows tracking and keplerian element data for the satellite.

Feedback or suggestion? Click here.




ElementValue
Catalog55179
NameONEWEB-0719
Epoch Orbit1123
Epoch Day85.16859085
Epoch Year2023
RAAN253.5902
Inclination86.62
Eccentricity0.0007982
Argument of Perigee328.4046
Mean Anonmoly31.6687
Mean Motion14.65728102
Decay Rate-7.69E-06
L11 55179U 23004AR 23085.16859085 -.00000769 00000+0 -14571-3 0 9990
L22 55179 86.6200 253.5902 0007982 328.4046 31.6687 14.65728102 11234



Live tracking and technical data element details for ONEWEB-0719 (NORAD 55179). ONEWEB-0719 can be tracked NOW for your location showing map with azimuth and elevation plus other details from your city location.







IsCatalogInMostPopularTable: catalog: 55179, numindb: 12
Update: records affected: 1



GetName: 55179 ONEWEB-0719

Hit Count: updated at: Mon, 27 Mar 2023 08:29:07 GMT